Regional Weather Roundup
Issued by NWS

Home | Current Version | Previous Version | Text Only | Print | Product List | Glossary Off
Versions: 1 2 3 4 5 6 7 8 9 10 11 12 13 14 15 16 17 18 19 20 21 22 23 24 25 26 27 28 29 30 31 32 33 34 35 36 37 38 39 40 41 42 43 44 45 46 47 48 49 50

000
ASUS43 KBIS 261710
RWRND

NORTH DAKOTA REGIONAL WEATHER ROUNDUP
NATIONAL WEATHER SERVICE BISMARCK ND
1200 PM CDT SUN APR 26 2015

NOTE: "FAIR" INDICATES FEW OR NO CLOUDS BELOW 12,000 FEET WITH NO
SIGNIFICANT WEATHER AND/OR OBSTRUCTIONS TO VISIBILITY.


NDZ001>003-009>011-017-261800-
NORTHWEST NORTH DAKOTA

CITY           SKY/WX    TMP DP  RH WIND       PRES   REMARKS
WILLISTON      CLOUDY    46  35  65 N7        30.10R
MINOT          CLOUDY    45  41  86 NW8       30.08R
MINOT AFB      CLOUDY    45  45 100 NW8       30.07R
$$

NDZ018>021-031>035-040>046-261800-
SOUTHWEST NORTH DAKOTA

CITY           SKY/WX    TMP DP  RH WIND       PRES   REMARKS
BISMARCK       CLOUDY    50  46  86 SE3       30.08R
DICKINSON      LGT RAIN  42  39  89 N7        30.06R FOG
GARRISON         N/A     45  42  89 N7        30.08R
HETTINGER ARPT LGT RAIN  44  42  93 NE12      30.06R
$$

NDZ004>008-012>016-024-026-027-054-261800-
NORTHEAST NORTH DAKOTA

CITY           SKY/WX    TMP DP  RH WIND       PRES   REMARKS
GRAND FORKS    MOSUNNY   61  23  23 S10       30.13S
GRND FRKS AFB  SUNNY     61  24  23 SW12G20   30.13S
DEVILS LAKE    CLOUDY    54  41  62 SW10      30.10R
$$

NDZ022-023-025-028>030-036>039-047>053-261800-
SOUTHEAST NORTH DAKOTA

CITY           SKY/WX    TMP DP  RH WIND       PRES   REMARKS
FARGO          SUNNY     62  13  14 SE9G17    30.13S
JAMESTOWN      MOSUNNY   61  39  44 VRB6      30.09R
$$




USA.gov is the U.S. government's official web portal to all federal, state and local government web resources and services.